This is the latest recevied weather packets stored in our database for station/object SLG. If no packets are shown the sender has not sent any weather packets the latest 10 day(s).
| Time | Temp. | Humidity | Pressure | Rain* | Wind** | Luminosity | Snow |
|---|---|---|---|---|---|---|---|
| 1777773731 | 8.89° C | 76% | 1013.2 hPa | 0 mm | - | - | - |
| 1777771931 | 8.89° C | 73% | 1013.2 hPa | 0 mm | - | - | - |
| 1777770132 | 9.44° C | 72% | 1013.3 hPa | 0 mm | - | - | - |
| 1777768329 | 10° C | 71% | 1013.5 hPa | 0 mm | - | - | - |
| 1777766530 | 10.56° C | 70% | 1013.8 hPa | 0 mm | - | - | - |
| 1777764730 | 10.56° C | 68% | 1013.7 hPa | 0 mm | - | - | - |
| 1777762930 | 11.67° C | 66% | 1014 hPa | 0 mm | - | - | - |
| 1777761131 | 12.22° C | 65% | 1014 hPa | 0 mm | - | - | - |
| 1777759330 | 12.78° C | 61% | 1014.1 hPa | 0 mm | - | - | - |
| 1777757530 | 13.33° C | 59% | 1014 hPa | 0 mm | - | - | - |
| 1777755729 | 14.44° C | 56% | 1014.1 hPa | 0 mm | - | - | - |
| 1777753930 | 15.56° C | 54% | 1014.2 hPa | 0 mm | - | - | - |
| 1777752130 | 17.22° C | 52% | 1014.4 hPa | 0 mm | - | - | - |
| 1777750335 | 18.33° C | 46% | 1014.4 hPa | 0 mm | - | - | - |
| 1777748537 | 20° C | 43% | 1014.2 hPa | 0 mm | - | - | - |
| 1777746730 | 21.67° C | 38% | 1014 hPa | 0 mm | - | - | - |
| 1777744931 | 22.78° C | 35% | 1014 hPa | 0 mm | - | - | - |
| 1777743130 | 23.89° C | 32% | 1014.1 hPa | 0 mm | - | - | - |
| 1777741330 | 25° C | 29% | 1014.3 hPa | 0 mm | - | - | - |
| 1777739530 | 26.11° C | 27% | 1014.5 hPa | 0 mm | - | - | - |
| 1777737733 | 26.11° C | 25% | 1015 hPa | 0 mm | - | - | - |
| 1777735930 | 26.67° C | 25% | 1015.3 hPa | 0 mm | - | - | - |
| 1777734130 | 26.67° C | 24% | 1015.7 hPa | 0 mm | - | - | - |
| 1777732330 | 26.67° C | 24% | 1016.2 hPa | 0 mm | - | - | - |
| 1777730530 | 27.22° C | 22% | 1016.4 hPa | 0 mm | - | - | - |
* Rain since midnight (hover to see other rain measurements)
** Current wind speed in m/s (hover to see current wind gust speed)